Луговский

Россия / Иркутская область     58°03′38″N   112°52′31″E
темп.,
°C
ветер,
м/с
пор.,
м/с
влажн.,
%
обл.,
%
осадки,
мм/ч
давл.,
гПа
погр.,
м
12 мая, ср
ср1223:000ссз129496 0.1 101538
02:00−1с1194100 0.1 101537
05:00−1ссв2397100 0.0 1013141
08:000ссв2294100 0.4 1012379
11:00+1с2295100 1.3 1012315
14:00+2с2297100 3.7 1012245
17:00+2ссз2399100 1.7 1012179
20:00+1ссз2499100 2.2 1014300
13 мая, чт
чт1323:000с259897 0.4 1014310
02:000с359457 0.4 1014297
05:00−4с239674 0.0 101558
08:00+2ссв367472 0.0 1014883
11:00+4св3568100 0.0 10141168
14:00+5св366797 0.2 10141305
17:00+6св3561100 0.2 10141317
20:00+1ссв228235 0.3 101615
14 мая, пт
пт1423:00−2ссз118626 0.0 101810
02:00−3зсз018924 0.0 101810
05:00−3зюз11895 0.0 101814
08:00+5зсз11655 0.0 1016303
11:00+8ссз224894 0.0 10151728
14:00+9сз224384 0.0 10131953
17:00+9зсз124247 0.0 10131811
20:00+6з11618 0.0 101310
15 мая, сб
сб1523:00+2зюз11695 0.0 101410
02:00+1ю11735 0.0 101410
05:00+1ююз11765 0.0 101411
08:00+6ююз22605 0.0 1013339
11:00+10юз234564 0.0 10111314
14:00+12юз453995 0.0 10091842
17:00+13зюз48375 0.0 10072218
20:00+9ююз335986 0.0 100744
16 мая, вс
вс1623:00+5зюз2284100 0.0 101024
02:00+4зюз31077100 0.1 1009507
05:00+4юз41561100 0.0 10081422
08:00+5зюз81566100 0.1 10061479
11:00+3з41188100 1.4 10071095
14:00+3з597898 2.6 10081094
17:00+6зсз7115653 0.6 10081778
20:00+4з246575 0.8 101094